Lake Jordan Weather Center

Moon Phase Calendar



Lake Jordan Water Level
Online Cameras

 


      

Current Conditions in Holtville
5/21/2022 11:01:53 PM

71°F
Feels Like 72
Clouds
Humidity
92%
Pressure
30.15"
Wind
4.1 mph (SE)
Dew Point
68°F
UV Index
0/10 (Low)
Visibility
6 mi

Hourly Forecast

Date & Time Sat, May 21
11:00 PM
Sun, May 22
12:00 AM
Sun, May 22
1:00 AM
Sun, May 22
2:00 AM
Sun, May 22
3:00 AM
Sun, May 22
4:00 AM
Sun, May 22
5:00 AM
Sun, May 22
6:00 AM
Sun, May 22
7:00 AM
Sun, May 22
8:00 AM
Sun, May 22
9:00 AM
Sun, May 22
10:00 AM
Sun, May 22
11:00 AM
Sun, May 22
12:00 PM
Sun, May 22
1:00 PM
Sun, May 22
2:00 PM
Sun, May 22
3:00 PM
Sun, May 22
4:00 PM
Sun, May 22
5:00 PM
Sun, May 22
6:00 PM
Sun, May 22
7:00 PM
Sun, May 22
8:00 PM
Sun, May 22
9:00 PM
Sun, May 22
10:00 PM
Sun, May 22
11:00 PM
Mon, May 23
12:00 AM
Mon, May 23
1:00 AM
Mon, May 23
2:00 AM
Mon, May 23
3:00 AM
Mon, May 23
4:00 AM
Mon, May 23
5:00 AM
Mon, May 23
6:00 AM
Mon, May 23
7:00 AM
Mon, May 23
8:00 AM
Mon, May 23
9:00 AM
Mon, May 23
10:00 AM
Mon, May 23
11:00 AM
Mon, May 23
12:00 PM
Mon, May 23
1:00 PM
Mon, May 23
2:00 PM
Mon, May 23
3:00 PM
Mon, May 23
4:00 PM
Mon, May 23
5:00 PM
Mon, May 23
6:00 PM
Mon, May 23
7:00 PM
Mon, May 23
8:00 PM
Mon, May 23
9:00 PM
Mon, May 23
10:00 PM
Condition
Clouds

Clouds

Clouds

Clouds

Clouds

Clouds

Rain

Rain

Clouds

Clouds

Rain

Rain

Rain

Rain

Rain

Rain

Rain

Rain

Rain

Rain

Rain

Rain

Rain

Rain

Clouds

Clouds

Clouds

Clouds

Clouds

Clouds

Clouds

Clouds

Clouds

Rain

Rain

Rain

Rain

Clouds

Rain

Rain

Rain

Rain

Clouds

Clouds

Clouds

Clouds

Clouds

Clouds
Temperature 71°F70°F69°F68°F67°F66°F67°F67°F69°F73°F76°F78°F81°F81°F82°F85°F86°F84°F81°F80°F76°F73°F70°F70°F70°F69°F69°F68°F68°F67°F67°F67°F68°F70°F70°F70°F69°F70°F70°F70°F69°F68°F68°F68°F67°F67°F66°F66°F
Feels Like 72°F71°F70°F68°F68°F67°F68°F68°F71°F74°F77°F79°F84°F84°F85°F87°F88°F86°F83°F82°F77°F74°F71°F71°F71°F70°F70°F69°F69°F68°F68°F68°F69°F71°F71°F71°F70°F71°F72°F71°F70°F69°F69°F69°F68°F67°F67°F67°F
Cloudiness 76%73%67%32%30%46%59%58%65%100%100%100%97%97%98%100%100%100%100%100%99%95%97%98%99%99%99%100%100%100%100%100%100%100%100%100%100%100%100%100%100%100%100%100%100%100%100%100%
Visibility 6 mi6 mi6 mi6 mi6 mi6 mi6 mi6 mi6 mi6 mi6 mi6 mi5 mi5 mi6 mi6 mi6 mi6 mi6 mi6 mi6 mi6 mi6 mi6 mi6 mi6 mi6 mi6 mi6 mi6 mi6 mi6 mi6 mi6 mi6 mi6 mi6 mi6 mi6 mi6 mi6 mi6 mi6 mi6 mi6 mi6 mi6 mi6 mi
Precipitation 47%38%34%0%1%1%27%25%18%6%52%88%97%97%97%62%70%70%68%62%68%65%72%78%75%75%77%62%62%54%57%51%59%52%56%76%76%77%82%64%75%71%57%53%49%25%26%26%
Humidity 92%91%93%94%96%98%98%99%96%92%82%78%68%69%62%53%50%55%62%64%74%82%93%95%96%96%96%97%97%97%96%96%94%93%93%94%94%93%91%91%92%93%92%92%94%96%97%98%
Dew Point 68°F67°F66°F66°F66°F65°F66°F66°F68°F70°F70°F70°F69°F69°F68°F65°F65°F65°F66°F66°F67°F67°F68°F68°F68°F68°F67°F67°F66°F66°F66°F66°F66°F67°F67°F67°F67°F67°F67°F67°F66°F66°F66°F65°F65°F65°F65°F65°F
Pressure 30.15"30.15"30.15"30.15"30.15"30.15"30.15"30.18"30.18"30.21"30.18"30.18"30.18"30.18"30.18"30.15"30.12"30.09"30.09"30.06"30.09"30.09"30.12"30.12"30.12"30.12"30.12"30.12"30.12"30.09"30.09"30.09"30.12"30.12"30.12"30.12"30.12"30.12"30.12"30.09"30.09"30.06"30.06"30.06"30.06"30.06"30.03"30.03"
Wind Speed 4.1 mph3.5 mph3.8 mph3.6 mph3.7 mph3.4 mph2.8 mph4 mph3.4 mph4.7 mph5.9 mph6.8 mph7.9 mph9.2 mph8.6 mph7.8 mph8.1 mph8.6 mph6.8 mph5.1 mph3.1 mph3 mph3.6 mph3.3 mph3.5 mph2.7 mph3.6 mph3.9 mph3.6 mph1.6 mph1.3 mph3 mph2.8 mph2.6 mph3.4 mph4.6 mph5.4 mph5.5 mph5.6 mph6.5 mph7.4 mph6.1 mph5.1 mph4.3 mph4.6 mph5.2 mph5.7 mph5.8 mph
Wind
Direction
133°
SE
144°
SE
149°
SSE
149°
SSE
149°
SSE
166°
SSE
159°
SSE
151°
SSE
166°
SSE
185°
S
190°
S
195°
SSW
189°
S
192°
SSW
199°
SSW
205°
SSW
210°
SSW
199°
SSW
182°
S
164°
SSE
153°
SSE
173°
S
245°
WSW
271°
W
244°
WSW
246°
WSW
232°
SW
257°
WSW
297°
WNW
325°
NW
72°
ENE
130°
SE
107°
ESE
119°
ESE
155°
SSE
175°
S
176°
S
177°
S
178°
S
168°
SSE
155°
SSE
142°
SE
125°
SE
109°
ESE
111°
ESE
119°
ESE
121°
ESE
104°
ESE

Daily Forecast

Date High Low Precip. Humidity
Today
May 21

Rain
93 °F
69 °F
75%
40%
Sunday
May 22

Rain
86 °F
66 °F
97%
69%
Monday
May 23

Rain
70 °F
66 °F
82%
93%
Tuesday
May 24

Rain
76 °F
66 °F
100%
96%
Wednesday
May 25

Rain
88 °F
68 °F
89%
47%
Thursday
May 26

Rain
77 °F
69 °F
100%
91%
Friday
May 27

Clear
82 °F
58 °F
43%
32%
Saturday
May 28

Clear
88 °F
59 °F
0%
34%
Sunday
May 29

Clouds
90 °F
62 °F
0%
35%
Monday
May 30

Rain
89 °F
68 °F
90%
45%
Tuesday
May 31

Rain
77 °F
62 °F
100%
65%
Wednesday
Jun 1

Clear
75 °F
53 °F
0%
34%
Thursday
Jun 2

Clouds
78 °F
51 °F
0%
29%
Friday
Jun 3

Clouds
89 °F
60 °F
8%
37%
Saturday
Jun 4

Rain
82 °F
66 °F
100%
85%
Sunday
Jun 5

Clear
84 °F
59 °F
52%
29%

Temperature 8-14 Day Outlook



Precipitation 8-14 Day Outlook




Quick Links
Lake Jordan News
Lake Jordan Photos
Lake Jordan Videos




About Us
Contact Us
Site Map
Search Site
Advertise With Us
   
www.LakeJordan.info
THE LAKE JORDAN WEBSITE

Copyright 2022, Lakes Online
Privacy    |    Legal